Location: Unspecified
(50.7693°N, 0.0000°E)
Time: 01:05:51
(UTC+00:00)

Transit 4A - Pass Details

Date: 04 July 2019
Orbit: 862 x 982 km, 66.8° (Epoch: 20 July)

Event Time Altitude Azimuth Distance (km) Brightness Sun altitude
Rises 14:31:54 0° 320° (NW) 3,689 11.1 50.1°
Reaches altitude 10° 14:34:35 10° 315° (NW) 2,729 10.6 49.7°
Maximum altitude 14:40:37 46° 244° (WSW) 1,267 12.4 48.9°
Drops below altitude 10° 14:46:29 10° 173° (S) 2,650 10.6 48.1°
Sets 14:49:04 0° 168° (SSE) 3,572 11.1 47.7°
